| time (UTC) | temp F | wind direction | speed knots | gust knots | rain 1hr in | rain 24hr in | rain mn in | humidity % | barometer mb |
| 20260502123020 | 75 | 135 | 3.5 | 8.7 | 0.00 | 0.00 | 0.00 | 48 | 1018.3 |
| 20260502122020 | 75 | 135 | 3.5 | 11.3 | 0.00 | 0.00 | 0.00 | 47 | 1018.4 |
| 20260502121020 | 75 | 158 | 3.5 | 7.8 | 0.00 | 0.00 | 0.00 | 49 | 1018.6 |
| 20260502115020 | 74 | 225 | 3.5 | 7.8 | 0.00 | 0.00 | 0.00 | 50 | 1018.8 |
| 20260502114019 | 74 | 225 | 4.3 | 11.3 | 0.00 | 0.00 | 0.00 | 50 | 1018.9 |
| 20260502113019 | 73 | 135 | 2.6 | 7.0 | 0.00 | 0.00 | 0.00 | 52 | 1018.9 |
| 20260502112019 | 73 | 203 | 4.3 | 8.7 | 0.00 | 0.00 | 0.00 | 52 | 1019.0 |
| 20260502111020 | 72 | 135 | 2.6 | 7.0 | 0.00 | 0.00 | 0.00 | 53 | 1019.1 |
| 20260502110019 | 73 | 135 | 2.6 | 7.8 | 0.00 | 0.00 | 0.00 | 52 | 1019.1 |
| 20260502105019 | 73 | 158 | 3.5 | 10.4 | 0.00 | 0.00 | 0.00 | 52 | 1019.2 |
| 20260502104019 | 73 | 180 | 3.5 | 8.7 | 0.00 | 0.00 | 0.00 | 52 | 1019.3 |
| 20260502103020 | 72 | 203 | 2.6 | 7.0 | 0.00 | 0.00 | 0.00 | 53 | 1019.3 |
| 20260502102019 | 72 | 203 | 4.3 | 9.6 | 0.00 | 0.00 | 0.00 | 51 | 1019.6 |
| 20260502101019 | 71 | 225 | 2.6 | 7.0 | 0.00 | 0.00 | 0.00 | 52 | 1019.6 |
| 20260502091019 | 68 | 158 | 3.5 | 8.7 | 0.00 | 0.00 | 0.00 | 50 | 1019.6 |
| 20260502071019 | 65 | 135 | 2.6 | 5.2 | 0.00 | 0.00 | 0.00 | 48 | 1020.2 |
| 20260502070019 | 65 | 158 | 1.7 | 4.3 | 0.00 | 0.00 | 0.00 | 49 | 1020.2 |
| 20260502065019 | 64 | 203 | 1.7 | 6.1 | 0.00 | 0.00 | 0.00 | 50 | 1020.4 |
| 20260502064019 | 63 | 158 | 2.6 | 7.8 | 0.00 | 0.00 | 0.00 | 51 | 1020.3 |
| 20260502063019 | 62 | 135 | 1.7 | 5.2 | 0.00 | 0.00 | 0.00 | 52 | 1020.2 |
| 20260502062019 | 62 | 180 | 1.7 | 4.3 | 0.00 | 0.00 | 0.00 | 51 | 1020.2 |
| 20260502061019 | 61 | 180 | 1.7 | 4.3 | 0.00 | 0.00 | 0.00 | 52 | 1020.2 |
| 20260502060019 | 60 | 135 | 1.7 | 4.3 | 0.00 | 0.00 | 0.00 | 53 | 1020.2 |
| 20260502055018 | 60 | 158 | 2.6 | 7.0 | 0.00 | 0.00 | 0.00 | 53 | 1020.1 |
| 20260502054019 | 59 | 158 | 1.7 | 3.5 | 0.00 | 0.00 | 0.00 | 54 | 1020.1 |
| 20260502053019 | 58 | 203 | 2.6 | 7.8 | 0.00 | 0.00 | 0.00 | 55 | 1020.1 |
| 20260502052019 | 58 | 158 | 1.7 | 6.1 | 0.00 | 0.00 | 0.00 | 55 | 1020.0 |
| 20260502051019 | 57 | 158 | 0.9 | 4.3 | 0.00 | 0.00 | 0.00 | 55 | 1020.0 |
| 20260502050019 | 57 | 158 | 1.7 | 4.3 | 0.00 | 0.00 | 0.00 | 55 | 1020.1 |
| 20260502045018 | 57 | 135 | 0.9 | 4.3 | 0.00 | 0.00 | 0.00 | 55 | 1020.2 |
| 20260502044019 | 58 | 158 | 3.5 | 7.8 | 0.00 | 0.00 | 0.00 | 54 | 1020.1 |
| 20260502043019 | 58 | 158 | 4.3 | 7.8 | 0.00 | 0.00 | 0.00 | 54 | 1020.2 |
| 20260502042018 | 58 | 135 | 4.3 | 13.0 | 0.00 | 0.00 | 0.00 | 54 | 1020.2 |
| 20260502041018 | 58 | 158 | 5.2 | 9.6 | 0.00 | 0.00 | 0.00 | 54 | 1020.2 |
| 20260502040019 | 58 | 158 | 4.3 | 9.6 | 0.00 | 0.00 | 0.00 | 54 | 1020.3 |
| 20260502035019 | 58 | 135 | 4.3 | 9.6 | 0.00 | 0.00 | 0.00 | 54 | 1020.3 |
| 20260502034019 | 58 | 158 | 4.3 | 9.6 | 0.00 | 0.00 | 0.00 | 53 | 1020.4 |
| 20260502033019 | 58 | 135 | 4.3 | 9.6 | 0.00 | 0.00 | 0.00 | 53 | 1020.4 |
| 20260502032018 | 58 | 158 | 3.5 | 7.8 | 0.00 | 0.00 | 0.00 | 53 | 1020.4 |
| 20260502031018 | 58 | 135 | 3.5 | 7.8 | 0.00 | 0.00 | 0.00 | 54 | 1020.4 |
| 20260502030018 | 58 | 135 | 2.6 | 7.8 | 0.00 | 0.00 | 0.00 | 53 | 1020.5 |
| 20260502025019 | 58 | 158 | 3.5 | 8.7 | 0.00 | 0.00 | 0.00 | 53 | 1020.5 |
| 20260502024018 | 59 | 158 | 3.5 | 8.7 | 0.00 | 0.00 | 0.00 | 53 | 1020.6 |
| 20260502023018 | 59 | 135 | 2.6 | 7.0 | 0.00 | 0.00 | 0.00 | 52 | 1020.7 |
| 20260502022018 | 59 | 135 | 2.6 | 6.1 | 0.00 | 0.00 | 0.00 | 52 | 1020.7 |
| 20260502021018 | 59 | 158 | 3.5 | 7.0 | 0.00 | 0.00 | 0.00 | 52 | 1020.8 |
| 20260502020018 | 59 | 158 | 4.3 | 10.4 | 0.00 | 0.00 | 0.00 | 52 | 1020.8 |
| 20260502015018 | 59 | 158 | 2.6 | 7.0 | 0.00 | 0.00 | 0.00 | 52 | 1021.0 |
| 20260502014018 | 59 | 158 | 2.6 | 7.8 | 0.00 | 0.00 | 0.00 | 52 | 1021.0 |
| 20260502013018 | 60 | 158 | 3.5 | 7.8 | 0.00 | 0.00 | 0.00 | 52 | 1021.2 |
| 20260502012019 | 60 | 158 | 3.5 | 7.8 | 0.00 | 0.00 | 0.00 | 51 | 1021.3 |
| 20260502011018 | 60 | 158 | 4.3 | 9.6 | 0.00 | 0.00 | 0.00 | 52 | 1021.4 |
| 20260502010018 | 59 | 135 | 3.5 | 7.8 | 0.00 | 0.00 | 0.00 | 52 | 1021.4 |
| 20260502005018 | 60 | 158 | 2.6 | 7.8 | 0.00 | 0.00 | 0.00 | 52 | 1021.6 |
| 20260502004018 | 60 | 158 | 4.3 | 8.7 | 0.00 | 0.00 | 0.00 | 51 | 1021.7 |
| 20260502003018 | 60 | 158 | 2.6 | 7.8 | 0.00 | 0.00 | 0.00 | 51 | 1021.8 |
| 20260502002018 | 60 | 158 | 3.5 | 7.8 | 0.00 | 0.00 | 0.00 | 51 | 1021.8 |
| 20260502001018 | 60 | 158 | 4.3 | 9.6 | 0.00 | 0.00 | 0.00 | 51 | 1022.0 |
| 20260502000018 | 60 | 158 | 3.5 | 8.7 | 0.00 | 0.00 | 0.00 | 51 | 1022.1 |
| 20260501235018 | 60 | 158 | 4.3 | 7.8 | 0.00 | 0.00 | 0.00 | 50 | 1022.2 |
| 20260501234018 | 60 | 158 | 4.3 | 10.4 | 0.00 | 0.00 | 0.00 | 50 | 1022.2 |
| 20260501233020 | 60 | 135 | 4.3 | 9.6 | 0.00 | 0.00 | 0.00 | 51 | 1022.2 |
| 20260501232018 | 60 | 135 | 3.5 | 7.8 | 0.00 | 0.00 | 0.00 | 50 | 1022.1 |
| 20260501231019 | 60 | 158 | 3.5 | 9.6 | 0.00 | 0.00 | 0.00 | 50 | 1022.3 |
| 20260501230020 | 60 | 158 | 4.3 | 10.4 | 0.00 | 0.00 | 0.00 | 50 | 1022.3 |
| 20260501225020 | 61 | 158 | 4.3 | 8.7 | 0.00 | 0.00 | 0.00 | 50 | 1022.3 |
| 20260501224018 | 61 | 158 | 3.5 | 9.6 | 0.00 | 0.00 | 0.00 | 50 | 1022.5 |
| 20260501223018 | 61 | 135 | 3.5 | 8.7 | 0.00 | 0.00 | 0.00 | 50 | 1022.4 |
| 20260501222020 | 61 | 158 | 3.5 | 7.8 | 0.00 | 0.00 | 0.00 | 49 | 1022.5 |
| 20260501221020 | 61 | 158 | 2.6 | 6.1 | 0.00 | 0.00 | 0.00 | 49 | 1022.6 |
| 20260501220020 | 61 | 158 | 2.6 | 6.1 | 0.00 | 0.00 | 0.00 | 49 | 1022.6 |
| 20260501215019 | 61 | 158 | 2.6 | 7.0 | 0.00 | 0.00 | 0.00 | 48 | 1022.6 |
| 20260501214019 | 61 | 158 | 2.6 | 7.8 | 0.00 | 0.00 | 0.00 | 48 | 1022.6 |
| 20260501213018 | 61 | 135 | 3.5 | 7.8 | 0.00 | 0.00 | 0.00 | 48 | 1022.5 |
| 20260501212018 | 61 | 158 | 3.5 | 7.8 | 0.00 | 0.00 | 0.00 | 48 | 1022.6 |
| 20260501211018 | 61 | 158 | 3.5 | 6.1 | 0.00 | 0.00 | 0.00 | 48 | 1022.6 |
| 20260501210018 | 61 | 158 | 1.7 | 4.3 | 0.00 | 0.00 | 0.00 | 47 | 1022.7 |
| 20260501205019 | 62 | 158 | 1.7 | 4.3 | 0.00 | 0.00 | 0.00 | 46 | 1022.7 |
| 20260501204018 | 62 | 158 | 2.6 | 7.0 | 0.00 | 0.00 | 0.00 | 46 | 1022.7 |
| 20260501203018 | 62 | 158 | 2.6 | 4.3 | 0.00 | 0.00 | 0.00 | 46 | 1022.8 |
| 20260501202018 | 63 | 158 | 1.7 | 3.5 | 0.00 | 0.00 | 0.00 | 45 | 1022.7 |
| 20260501201019 | 63 | 158 | 1.7 | 3.5 | 0.00 | 0.00 | 0.00 | 45 | 1022.8 |
| 20260501200018 | 64 | 158 | 2.6 | 6.1 | 0.00 | 0.00 | 0.00 | 44 | 1022.8 |
| 20260501195018 | 64 | 158 | 3.5 | 7.0 | 0.00 | 0.00 | 0.00 | 44 | 1022.8 |
| 20260501194018 | 63 | 158 | 0.9 | 3.5 | 0.00 | 0.00 | 0.00 | 45 | 1022.6 |
| 20260501193018 | 64 | 158 | 0.9 | 2.6 | 0.00 | 0.00 | 0.00 | 44 | 1022.7 |
| 20260501192018 | 65 | 158 | 0.9 | 3.5 | 0.00 | 0.00 | 0.00 | 43 | 1022.8 |
| 20260501191018 | 65 | 158 | 1.7 | 3.5 | 0.00 | 0.00 | 0.00 | 42 | 1022.7 |
| 20260501190018 | 66 | 135 | 1.7 | 3.5 | 0.00 | 0.00 | 0.00 | 41 | 1022.8 |
| 20260501185019 | 66 | 158 | 2.6 | 4.3 | 0.00 | 0.00 | 0.00 | 40 | 1022.8 |
| 20260501184018 | 67 | 158 | 2.6 | 4.3 | 0.00 | 0.00 | 0.00 | 40 | 1022.8 |
| 20260501183018 | 67 | 158 | 1.7 | 6.1 | 0.00 | 0.00 | 0.00 | 40 | 1022.9 |
| 20260501182018 | 67 | 135 | 1.7 | 7.0 | 0.00 | 0.00 | 0.00 | 39 | 1022.7 |
| 20260501181020 | 68 | 158 | 1.7 | 5.2 | 0.00 | 0.00 | 0.00 | 38 | 1022.8 |
| 20260501180018 | 68 | 158 | 2.6 | 7.0 | 0.00 | 0.00 | 0.00 | 38 | 1022.7 |
| 20260501175018 | 69 | 158 | 4.3 | 12.2 | 0.00 | 0.00 | 0.00 | 37 | 1022.6 |
| 20260501174018 | 69 | 135 | 2.6 | 8.7 | 0.00 | 0.00 | 0.00 | 37 | 1022.5 |
| 20260501173018 | 69 | 158 | 2.6 | 8.7 | 0.00 | 0.00 | 0.00 | 36 | 1022.6 |
| 20260501172020 | 70 | 158 | 2.6 | 7.8 | 0.00 | 0.00 | 0.00 | 36 | 1022.6 |
| 20260501171020 | 70 | 158 | 3.5 | 9.6 | 0.00 | 0.00 | 0.00 | 35 | 1022.6 |
| 20260501170018 | 70 | 135 | 2.6 | 7.8 | 0.00 | 0.00 | 0.00 | 35 | 1022.6 |
| 20260501165018 | 71 | 135 | 3.5 | 8.7 | 0.00 | 0.00 | 0.00 | 36 | 1022.6 |
| 20260501164018 | 71 | 158 | 3.5 | 7.8 | 0.00 | 0.00 | 0.00 | 34 | 1022.6 |
| 20260501163020 | 71 | 135 | 4.3 | 8.7 | 0.00 | 0.00 | 0.00 | 34 | 1022.7 |
| 20260501162020 | 71 | 135 | 3.5 | 9.6 | 0.00 | 0.00 | 0.00 | 34 | 1022.8 |
| 20260501161018 | 71 | 113 | 3.5 | 7.8 | 0.00 | 0.00 | 0.00 | 34 | 1022.9 |
| 20260501160018 | 71 | 135 | 5.2 | 11.3 | 0.00 | 0.00 | 0.00 | 34 | 1022.9 |
| 20260501155020 | 71 | 135 | 4.3 | 10.4 | 0.00 | 0.00 | 0.00 | 33 | 1023.2 |
| 20260501154020 | 71 | 158 | 4.3 | 8.7 | 0.00 | 0.00 | 0.00 | 33 | 1023.2 |
| 20260501153018 | 71 | 113 | 4.3 | 10.4 | 0.00 | 0.00 | 0.00 | 34 | 1023.2 |
| 20260501152020 | 71 | 135 | 4.3 | 9.6 | 0.00 | 0.00 | 0.00 | 32 | 1023.3 |
| 20260501151020 | 71 | 135 | 5.2 | 13.0 | 0.00 | 0.00 | 0.00 | 32 | 1023.6 |